SES-11 (ECHOSTAR 105) (42967 NORAD) Tracking and Keplerian Element Data

This shows tracking and keplerian element data for the satellite.

Feedback or suggestion? Click here.




ElementValue
Catalog42967
NameSES-11 (ECHOSTAR 105)
Epoch Orbit2558
Epoch Day286.59915025
Epoch Year2024
RAAN291.8766
Inclination0.0143
Eccentricity0.0002336
Argument of Perigee271.782
Mean Anonmoly288.7757
Mean Motion1.0027148
Decay Rate-8.9E-07
L11 42967U 17063A 24286.59915025 -.00000089 00000+0 00000+0 0 9999
L22 42967 0.0143 291.8766 0002336 271.7820 288.7757 1.00271480 25585



Live tracking and technical data element details for SES-11 (ECHOSTAR 105) (NORAD 42967). SES-11 (ECHOSTAR 105) can be tracked NOW for your location showing map with azimuth and elevation plus other details from your city location.







IsCatalogInMostPopularTable: catalog: 42967, numindb: 796
Update: records affected: 1



GetName: 42967 SES-11 (ECHOSTAR 105)

Hit Count: updated at: Mon, 13 Jan 2025 20:49:18 GMT